Weather History for Ocala, FL

Change the Weather History Date:

Sunday, January 20, 2013

  Actual Average Record
Temperature  
Mean Temperature 63 °F -  
Max Temperature 73 °F 66 °F 78 °F (1999)
Min Temperature 53 °F 41 °F 26 °F (2003)
Degree Days  
Heating Degree Days 2    
Growing Degree Days 13 (Base 50)    
Moisture  
Dew Point 49 °F    
Average Humidity 68    
Maximum Humidity 94    
Minimum Humidity 38    
Precipitation  
Precipitation 0.00 in - - ()
Sea Level Pressure  
Sea Level Pressure 30.15 in    
Wind  
Wind Speed 5 mph (NNE)    
Max Wind Speed 10 mph    
Max Gust Speed 16 mph    
Visibility 9 miles    
Events      
Averages and records for this station are not official NWS values.
T = Trace of Precipitation, MM = Missing Value Source: NWS Daily Summary

Daily Weather History Graph

Daily Weather History Graph

Search for Another Location

Airport:

Trip Planner

Search our weather history database for the weather conditions in past years. The results will help you decide how hot, cold, wet, or windy it might be!

Date:

Astronomy

Jan. 20, 2013 Rise Set
Actual Time 7:22 AM EST 5:57 PM EST
Civil Twilight 6:57 AM EST 6:22 PM EST
Nautical Twilight 6:28 AM EST 6:51 PM EST
Astronomical Twilight 6:00 AM EST 7:20 PM EST
Moon 12:56 PM EST (1/20) 1:56 AM EST (1/20)
Length of Visible Light 11h 25m
Length of Day
10h 34m
Waxing Gibbous, 66% of the Moon is Illuminated
Jan 20
Waxing Gibbous
Jan 26
Full
Feb 3
Last Quarter
Feb 10
New
Feb 17
First Quarter

Hourly Weather History & Observations

Time (EST) Temp. Dew Point Humidity Pressure Visibility Wind Dir Wind Speed Gust Speed Precip Events Conditions
12:15 AM 57.2 °F 50.0 °F 77% 30.20 in 10.0 mi NNE 5.8 mph - N/A   Overcast
12:35 AM 57.2 °F 50.0 °F 77% 30.19 in 10.0 mi NE 5.8 mph - N/A   Overcast
12:55 AM 57.2 °F 50.0 °F 77% 30.18 in 9.0 mi NNE 4.6 mph - N/A   Overcast
1:15 AM 57.2 °F 50.0 °F 77% 30.18 in 7.0 mi NNE 5.8 mph - N/A   Overcast
1:35 AM 57.2 °F 51.8 °F 82% 30.18 in 7.0 mi North 6.9 mph - N/A   Overcast
1:55 AM 57.2 °F 51.8 °F 82% 30.18 in 6.0 mi NNE 5.8 mph - N/A   Overcast
2:15 AM 57.2 °F 51.8 °F 82% 30.17 in 7.0 mi NNE 4.6 mph - N/A   Overcast
2:35 AM 57.2 °F 51.8 °F 82% 30.17 in 6.0 mi NNE 5.8 mph - N/A   Overcast
2:55 AM 57.2 °F 50.0 °F 77% 30.18 in 7.0 mi North 5.8 mph - N/A   Overcast
3:15 AM 57.2 °F 50.0 °F 77% 30.18 in 7.0 mi NNE 4.6 mph - N/A   Overcast
3:35 AM 57.2 °F 50.0 °F 77% 30.17 in 6.0 mi NNE 4.6 mph - N/A   Mostly Cloudy
3:55 AM 57.2 °F 50.0 °F 77% 30.17 in 7.0 mi North 6.9 mph - N/A   Mostly Cloudy
4:15 AM 57.2 °F 50.0 °F 77% 30.17 in 7.0 mi North 8.1 mph - N/A   Mostly Cloudy
4:35 AM 57.2 °F 50.0 °F 77% 30.17 in 7.0 mi North 9.2 mph - N/A   Mostly Cloudy
4:55 AM 57.2 °F 50.0 °F 77% 30.17 in 7.0 mi North 8.1 mph - N/A   Overcast
5:15 AM 57.2 °F 48.2 °F 72% 30.17 in 8.0 mi North 9.2 mph - N/A   Overcast
5:35 AM 57.2 °F 48.2 °F 72% 30.18 in 8.0 mi North 10.4 mph - N/A   Overcast
5:55 AM 57.2 °F 48.2 °F 72% 30.18 in 9.0 mi North 10.4 mph - N/A   Overcast
6:15 AM 57.2 °F 48.2 °F 72% 30.18 in 10.0 mi North 8.1 mph - N/A   Overcast
6:35 AM 57.2 °F 48.2 °F 72% 30.19 in 10.0 mi North 9.2 mph - N/A   Overcast
6:50 AM 57.2 °F 55.4 °F 94% 30.19 in 10.0 mi NNE 8.1 mph - N/A   Overcast
7:50 AM 55.4 °F 53.6 °F 94% 30.18 in 6.0 mi NNE 4.6 mph - N/A   Scattered Clouds
8:50 AM 57.2 °F 55.4 °F 94% 30.22 in 5.0 mi NE 5.8 mph - N/A   Mostly Cloudy
9:50 AM 62.6 °F 55.4 °F 77% 30.22 in 10.0 mi NE 5.8 mph - N/A   Mostly Cloudy
10:50 AM 66.2 °F 55.4 °F 68% 30.21 in 10.0 mi NE 4.6 mph - N/A   Overcast
11:50 AM 69.8 °F 55.4 °F 60% 30.18 in 10.0 mi NE 5.8 mph - N/A   Scattered Clouds
12:50 PM 73.4 °F 53.6 °F 50% 30.14 in 10.0 mi NNE 8.1 mph 16.1 mph N/A   Scattered Clouds
1:50 PM 73.4 °F 48.2 °F 41% 30.10 in 10.0 mi East 8.1 mph - N/A   Scattered Clouds
2:50 PM 73.4 °F 48.2 °F 41% 30.08 in 10.0 mi NNE 6.9 mph - N/A   Partly Cloudy
3:50 PM 73.4 °F 46.4 °F 38% 30.08 in 10.0 mi East 4.6 mph - N/A   Scattered Clouds
4:50 PM 71.6 °F 46.4 °F 41% 30.08 in 10.0 mi North 8.1 mph - N/A   Mostly Cloudy
5:50 PM 69.8 °F 46.4 °F 43% 30.09 in 10.0 mi North 3.5 mph - N/A   Scattered Clouds
6:50 PM 64.4 °F 46.4 °F 52% 30.10 in 10.0 mi Calm Calm - N/A   Partly Cloudy
7:55 PM 64.4 °F 46.4 °F 52% 30.10 in 10.0 mi Calm Calm - N/A   Overcast
8:15 PM 64.4 °F 48.2 °F 56% 30.11 in 10.0 mi Calm Calm - N/A   Mostly Cloudy
8:35 PM 64.4 °F 48.2 °F 56% 30.11 in 10.0 mi NE 3.5 mph - N/A   Mostly Cloudy
8:55 PM 62.6 °F 48.2 °F 59% 30.12 in 10.0 mi Calm Calm - N/A   Partly Cloudy
9:15 PM 60.8 °F 46.4 °F 59% 30.12 in 10.0 mi Calm Calm - N/A   Clear
9:35 PM 60.8 °F 46.4 °F 59% 30.13 in 10.0 mi Calm Calm - N/A   Clear
9:55 PM 60.8 °F 46.4 °F 59% 30.13 in 10.0 mi South 3.5 mph - N/A   Mostly Cloudy
10:15 PM 59.0 °F 46.4 °F 63% 30.13 in 10.0 mi Calm Calm - N/A   Mostly Cloudy
10:35 PM 57.2 °F 46.4 °F 67% 30.13 in 10.0 mi Calm Calm - N/A   Clear
10:55 PM 55.4 °F 46.4 °F 72% 30.13 in 10.0 mi Calm Calm - N/A   Clear
11:15 PM 53.6 °F 44.6 °F 72% 30.13 in 10.0 mi Calm Calm - N/A   Clear
11:35 PM 53.6 °F 44.6 °F 72% 30.13 in 10.0 mi North 3.5 mph - N/A   Partly Cloudy
11:55 PM 53.6 °F 44.6 °F 72% 30.12 in 10.0 mi Calm Calm - N/A   Partly Cloudy